Location: St. Louis
(38.6270°N, 90.1994°W)
Time: 10:41:35
(UTC-06:00)

S-56A Canister/Altair - Pass Details

Date: 09 December 2021
Orbit: 634 x 2499 km, 38.9° (Epoch: 26 January)

Event Time Altitude Azimuth Distance (km) Brightness Sun altitude
Rises 21:38:46 0° 237° (WSW) 6,048 12.4 -57.3°
Reaches altitude 10° 21:43:00 10° 235° (SW) 4,898 11.8 -58.1°
Enters shadow 21:46:53 22° 231° (SW) 3,841 11.1 -58.8°
Maximum altitude 21:56:12 65° 158° (SSE) 1,957 - -60.5°
Drops below altitude 10° 22:05:11 10° 79° (ENE) 3,442 - -62.1°
Sets 22:07:40 0° 76° (ENE) 4,198 - -62.5°
